C/2009 F4 ( McNaught )

Japanese version
Home page
Updated on October 11, 2014

---------------------------------------------------------------------

* Profile

Discovery Date March 19, 2009
Magnitude 17.8 mag
Discoverer R. H. McNaught (Siding Spring)

* Pictures

* Orbital Elements

Epoch 2011 Dec. 25.0 TT = JDT 2455920.5
T 2011 Dec. 31.89364 TT                                 MPC
q   5.4548560            (2000.0)            P               Q
z  -0.0002878      Peri.  260.38353     +0.04749643     +0.61014543
 +/-0.0000002      Node    53.58445     +0.16282531     +0.77643863
e   1.0015698      Incl.   79.34759     -0.98551104     +0.15768834
From 994 observations 2009 Mar. 19-2014 July 7, mean residual 0".5.

* Finding Charts

* Magnitudes Graph

        m1 = 0.5 + 5 log d + 12.5 log r

---------------------------------------------------------------------

The orbital elements are published on M.P.E.C. 2014-P41.
The charts are made with StellaNavigator Ver.8 (AstroArts).
The magnitudes graphs are made with Comet for Windows.

---------------------------------------------------------------------

Copyright(C) Seiichi Yoshida (comet@aerith.net). All rights reserved.